User: anonymous   Login
Location: Eaton
(41.3139°N, 82.0207°W)
Time: 10:42:09
(UTC+00:00)
Language:

ADEOS II - Orbit

View from above orbital plane
View from above orbital plane
View from above satellite
View from above satellite

Ground track
Ground track

The orbit data is extracted from the following two-line orbital elements,

1 27597U 02056A   21265.59241893  .00000040  00000-0  33707-4 0  9998
2 27597  98.5710 208.9923 0002154  79.9558 280.1866 14.27516663977746
Epoch (UTC): 22 September 2021 14:13:04
Eccentricity: 0.0002154
inclination: 98.5710°
perigee height: 798 km
apogee height: 801 km
right ascension of ascending node: 208.9923°
argument of perigee: 79.9558°
revolutions per day: 14.27516663
mean anomaly at epoch: 280.1866°
orbit number at epoch: 97774

The dashed part of the orbit path shows where the satellite is in the earth's shadow,  

DLR